This is the latest recevied weather packets stored in our database for station/object N3AVN. If no packets are shown the sender has not sent any weather packets the latest 10 day(s).
| Time | Temp. | Humidity | Pressure | Rain* | Wind** | Luminosity | Snow |
|---|---|---|---|---|---|---|---|
| 1778110995 | 15° C | 99% | 1004.9 hPa | 0 mm | - | 0 W/m² | - |
| 1778110693 | 15° C | 99% | 1005 hPa | 0 mm | - | 1 W/m² | - |
| 1778110388 | 15° C | 99% | 1004.9 hPa | 0 mm | - | 2 W/m² | - |
| 1778110085 | 15° C | 99% | 1005 hPa | 0 mm | - | 1 W/m² | - |
| 1778109780 | 15° C | 99% | 1004.8 hPa | 0 mm | - | 0 W/m² | - |
| 1778109477 | 15° C | 99% | 1004.8 hPa | 0 mm | - | 2 W/m² | - |
| 1778109175 | 15° C | 99% | 1004.5 hPa | 0 mm | - | 4 W/m² | - |
| 1778108872 | 15° C | 99% | 1004.6 hPa | 0 mm | - | 1 W/m² | - |
| 1778108564 | 15° C | 99% | 1004.7 hPa | 0 mm | - | 2 W/m² | - |
| 1778108260 | 15° C | 99% | 1004.7 hPa | 0 mm | - | 4 W/m² | - |
| 1778107957 | 15° C | 99% | 1004.6 hPa | 0 mm | - | 6 W/m² | - |
| 1778107652 | 15° C | 99% | 1004.6 hPa | 0 mm | - | 7 W/m² | - |
| 1778107350 | 15° C | 99% | 1004.5 hPa | 0 mm | - | 11 W/m² | - |
| 1778107046 | 15° C | 99% | 1004.3 hPa | 0 mm | - | 10 W/m² | - |
| 1778106742 | 15° C | 99% | 1004.5 hPa | 0 mm | - | 15 W/m² | - |
| 1778106434 | 15° C | 99% | 1004.4 hPa | 0 mm | - | 17 W/m² | - |
| 1778106129 | 15° C | 99% | 1004.3 hPa | 0 mm | - | 32 W/m² | - |
| 1778105828 | 15° C | 99% | 1004.6 hPa | 0 mm | - | 27 W/m² | - |
| 1778105525 | 15° C | 99% | 1004.5 hPa | 0 mm | - | 20 W/m² | - |
| 1778105222 | 15° C | 98% | 1004.6 hPa | 0 mm | - | 28 W/m² | - |
| 1778104917 | 15° C | 98% | 1004.7 hPa | 0 mm | - | 29 W/m² | - |
| 1778104614 | 15° C | 98% | 1004.8 hPa | 0.51 mm | - | 28 W/m² | - |
| 1778104309 | 15° C | 98% | 1004.6 hPa | 0.51 mm | - | 35 W/m² | - |
| 1778104007 | 15° C | 98% | 1004.7 hPa | 0.51 mm | - | 33 W/m² | - |
| 1778103703 | 15° C | 98% | 1004.5 hPa | 1.78 mm | - | 35 W/m² | - |
* Rain latest hour (hover to see other rain measurements)
** Current wind speed in m/s (hover to see current wind gust speed)